KD7MPG-3 Weather Reports


time (UTC)temp
F
wind
direction
speed
knots
gust
knots
rain 1hr
in
rain 24hr
in
rain mn
in
humidity
%
barometer
mb
20260902123302 61 163 0.9 6.1 0.00 0.01 0.00 83 1017.1
20260902122803 61 126 0.9 6.1 0.00 0.01 0.00 83 1017.1
20260902122301 61 138 0.9 2.6 0.00 0.01 0.00 83 1017.3
20260902121758 61 138 0.9 2.6 0.00 0.01 0.00 83 1017.4
20260902121259 61 137 0.9 2.6 0.00 0.01 0.00 83 1017.4
20260902120752 61 129 0.9 4.3 0.00 0.01 0.00 83 1017.6
20260902120251 61 152 0.9 4.3 0.00 0.01 0.00 83 1017.7
20260902115752 60 123 0.9 4.3 0.00 0.01 0.00 83 1017.6
20260902115252 60 147 1.7 7.0 0.00 0.01 0.00 83 1017.7
20260902114752 60 203 1.7 7.0 0.00 0.01 0.00 83 1017.8
20260902114257 60 152 1.7 4.3 0.00 0.01 0.00 84 1017.9
20260902113747 60 157 1.7 3.5 0.00 0.01 0.00 84 1017.9
20260902113245 60 132 0.9 3.5 0.00 0.01 0.00 84 1018.0
20260902112746 60 148 0.9 4.3 0.00 0.01 0.00 85 1018.1
20260902112247 60 169 1.7 4.3 0.00 0.01 0.00 85 1018.2
20260902111746 60 146 0.9 4.3 0.00 0.01 0.00 85 1018.2
20260902111247 60 156 0.9 6.1 0.00 0.01 0.00 85 1018.1
20260902110740 60 155 1.7 6.1 0.00 0.01 0.00 85 1018.2
20260902110237 60 126 1.7 7.0 0.00 0.01 0.00 85 1018.4
20260902105738 60 124 1.7 7.0 0.00 0.01 0.00 85 1018.4
20260902105239 60 152 1.7 6.1 0.00 0.01 0.00 85 1018.7
20260902104737 60 153 1.7 6.1 0.00 0.01 0.00 85 1018.5
20260902104239 59 204 0.9 6.1 0.00 0.01 0.00 85 1018.8
20260902103737 59 150 0.9 3.5 0.00 0.01 0.00 85 1018.9
20260902103234 59 144 1.7 6.1 0.00 0.01 0.00 85 1019.0
20260902102735 59 136 1.7 6.1 0.00 0.01 0.00 86 1018.9
20260902102233 59 161 0.9 6.1 0.00 0.01 0.00 86 1018.9
20260902101732 59 142 0.9 6.1 0.00 0.01 0.00 86 1019.0
20260902101232 59 142 0.9 5.2 0.00 0.01 0.00 86 1019.2
20260902100727 59 141 0.9 4.3 0.00 0.01 0.00 86 1019.1
20260902100227 59 159 1.7 4.3 0.00 0.01 0.00 86 1019.1
20260902095726 59 150 0.9 4.3 0.00 0.01 0.00 86 1019.2
20260902095223 59 181 0.0 3.5 0.00 0.01 0.00 86 1019.3
20260902094724 59 130 0.0 1.7 0.00 0.01 0.00 86 1019.3
20260902094224 59 130 0.0 3.5 0.00 0.01 0.00 86 1019.2
20260902093717 59 132 0.0 3.5 0.00 0.01 0.00 85 1019.2
20260902093219 59 144 0.0 0.9 0.00 0.01 0.00 85 1019.3
20260902092718 59 143 0.0 0.9 0.00 0.01 0.00 85 1019.4
20260902092217 59 143 0.0 0.9 0.00 0.01 0.00 84 1019.4
20260902091718 60 143 0.0 1.7 0.00 0.01 0.00 84 1019.4
20260902091219 60 144 0.0 2.6 0.00 0.01 0.00 84 1019.5
20260902090713 60 143 0.0 2.6 0.00 0.01 0.00 83 1019.6
20260902090214 60 131 0.0 2.6 0.00 0.01 0.00 83 1019.6
20260902085712 60 132 0.9 2.6 0.00 0.01 0.00 83 1019.7
20260902085212 60 141 0.9 3.5 0.00 0.01 0.00 83 1019.7
20260902084712 60 142 1.7 5.2 0.00 0.01 0.00 83 1019.9
20260902084211 60 150 0.9 5.2 0.00 0.01 0.00 83 1019.8
20260902083706 60 185 0.9 5.2 0.00 0.01 0.00 83 1019.9
20260902083205 60 162 0.9 5.2 0.00 0.01 0.00 83 1019.8
20260902082707 60 154 0.9 4.3 0.00 0.01 0.00 83 1020.0
20260902082207 60 168 0.0 2.6 0.00 0.01 0.00 83 1020.0
20260902081704 60 166 0.9 2.6 0.00 0.01 0.00 83 1020.0
20260902081204 60 161 0.9 2.6 0.00 0.01 0.00 83 1020.1
20260902080659 60 157 0.9 4.3 0.00 0.01 0.00 83 1020.0
20260902080153 60 169 0.9 4.3 0.00 0.01 0.00 83 1020.1
20260902075645 60 191 0.9 2.6 0.00 0.01 0.00 83 1020.1
20260902075146 60 197 0.9 4.3 0.00 0.01 0.00 83 1020.0
20260902074645 60 167 1.7 4.3 0.00 0.01 0.00 83 1020.0
20260902074147 60 188 1.7 4.3 0.00 0.01 0.00 83 1019.8
20260902073647 60 192 1.7 5.2 0.00 0.01 0.00 83 1019.8
20260902073145 60 171 1.7 5.2 0.00 0.01 0.00 83 1019.9
20260902072647 60 173 1.7 7.0 0.00 0.01 0.00 83 1020.0
20260902072144 60 196 1.7 7.0 0.00 0.01 0.00 84 1020.0
20260902071640 60 161 1.7 5.2 0.00 0.01 0.00 84 1020.2
20260902071140 60 167 1.7 3.5 0.00 0.01 0.00 84 1020.0
20260902070639 60 190 1.7 6.1 0.00 0.01 0.00 84 1020.2
20260902070140 60 223 1.7 6.1 0.00 0.01 0.00 84 1020.2
20260902065641 60 162 1.7 6.1 0.00 0.01 0.01 84 1020.3
20260902065138 61 151 1.7 6.1 0.00 0.01 0.01 84 1020.3
20260902064635 61 147 1.7 5.2 0.00 0.01 0.01 84 1020.4
20260902064136 61 174 1.7 6.1 0.00 0.01 0.01 84 1020.3
20260902063631 61 177 1.7 6.1 0.00 0.01 0.01 84 1020.3
20260902063129 61 207 1.7 5.2 0.00 0.01 0.01 83 1020.4
20260902062625 62 184 1.7 7.0 0.00 0.01 0.01 83 1020.4
20260902062124 62 185 1.7 7.0 0.00 0.01 0.01 83 1020.4
20260902061625 62 173 1.7 7.0 0.00 0.01 0.01 83 1020.5
20260902061122 62 215 2.6 8.7 0.00 0.01 0.01 83 1020.5
20260902060622 62 213 2.6 8.7 0.00 0.01 0.01 83 1020.5
20260902060121 62 185 2.6 8.7 0.00 0.01 0.01 83 1020.5
20260902055623 62 146 2.6 7.8 0.00 0.01 0.01 83 1020.7
20260902055122 62 152 2.6 7.8 0.00 0.01 0.01 83 1020.7
20260902054622 62 153 1.7 7.8 0.00 0.01 0.01 83 1020.8
20260902054122 62 126 1.7 6.1 0.00 0.01 0.01 83 1020.7
20260902053621 62 187 1.7 6.1 0.00 0.01 0.01 83 1020.8
20260902053121 62 150 1.7 4.3 0.00 0.01 0.01 83 1020.8
20260902052623 62 146 1.7 4.3 0.00 0.01 0.01 83 1020.8
20260902052119 62 155 1.7 5.2 0.00 0.01 0.01 83 1020.8
20260902051619 62 167 1.7 5.2 0.00 0.01 0.01 83 1020.9
20260902051122 62 157 0.9 4.3 0.00 0.01 0.01 83 1020.9
20260902050617 62 141 0.9 4.3 0.00 0.01 0.01 83 1020.9
20260902050117 62 157 0.9 2.6 0.00 0.01 0.01 82 1020.9
20260902045618 62 159 0.9 2.6 0.00 0.01 0.01 82 1020.9
20260902045118 62 158 0.9 2.6 0.00 0.01 0.01 82 1020.9
20260902044617 62 158 0.0 1.7 0.00 0.01 0.01 82 1020.8
20260902044119 62 157 0.0 1.7 0.00 0.01 0.01 82 1020.8
20260902043613 62 157 0.0 1.7 0.00 0.01 0.01 81 1020.9
20260902043114 62 158 0.0 1.7 0.00 0.01 0.01 81 1020.8
20260902042614 62 157 0.0 1.7 0.00 0.01 0.01 81 1020.8
20260902042114 63 157 0.0 2.6 0.00 0.01 0.01 81 1020.8
20260902041614 63 157 0.0 2.6 0.00 0.01 0.01 81 1020.8
20260902041115 63 156 0.0 1.7 0.00 0.01 0.01 81 1020.9
20260902040609 63 157 0.0 1.7 0.00 0.01 0.01 81 1021.0
20260902040110 63 157 0.0 1.7 0.00 0.01 0.01 81 1020.9
20260902035609 63 157 0.9 2.6 0.00 0.01 0.01 81 1020.9
20260902035110 63 155 1.7 5.2 0.00 0.01 0.01 80 1020.8
20260902034609 63 151 1.7 5.2 0.00 0.01 0.01 80 1020.8
20260902034110 63 137 1.7 6.1 0.00 0.01 0.01 80 1020.8
20260902033604 63 178 1.7 6.1 0.00 0.01 0.01 80 1020.8
20260902033105 63 163 2.6 6.1 0.00 0.01 0.01 80 1020.8
20260902032600 63 246 1.7 6.1 0.00 0.01 0.01 80 1020.8
20260902032100 63 181 1.7 6.1 0.00 0.01 0.01 80 1020.8
20260902031557 63 182 1.7 6.1 0.00 0.01 0.01 80 1020.7
20260902031057 63 230 1.7 5.2 0.00 0.01 0.01 79 1020.7
20260902030555 63 197 1.7 5.2 0.00 0.01 0.01 79 1020.6
20260902030056 64 184 1.7 5.2 0.00 0.01 0.01 79 1020.6
20260902025551 64 167 0.9 5.2 0.00 0.01 0.01 79 1020.5
20260902025051 64 187 0.9 2.6 0.00 0.01 0.01 79 1020.5
20260902024553 64 199 0.9 2.6 0.00 0.01 0.01 79 1020.5
20260902024051 64 217 0.9 3.5 0.00 0.01 0.01 78 1020.4
20260902023555 64 230 0.9 4.3 0.00 0.01 0.01 78 1020.5
20260902023050 64 161 0.9 4.3 0.00 0.01 0.01 78 1020.4
20260902022545 64 148 0.9 4.3 0.00 0.01 0.01 78 1020.4
20260902022045 64 172 0.9 5.2 0.00 0.01 0.01 78 1020.4
20260902021546 64 194 0.9 5.2 0.00 0.01 0.01 78 1020.4
20260902021047 64 242 0.9 3.5 0.00 0.01 0.01 78 1020.5
20260902020543 64 244 0.9 3.5 0.00 0.01 0.01 78 1020.4
20260902020044 64 186 0.9 3.5 0.00 0.01 0.01 78 1020.4
20260902015542 64 261 0.9 3.5 0.00 0.01 0.01 78 1020.3
20260902015039 64 252 0.9 3.5 0.00 0.01 0.01 78 1020.3
20260902014541 64 186 0.9 2.6 0.00 0.01 0.01 78 1020.3
20260902014041 64 185 0.9 4.3 0.00 0.01 0.01 78 1020.2
20260902013537 64 244 0.9 4.3 0.00 0.01 0.01 78 1020.4
20260902013038 64 171 0.9 4.3 0.00 0.01 0.01 79 1020.5
20260902012535 64 246 1.7 4.3 0.00 0.01 0.01 79 1020.4
20260902012035 64 178 1.7 6.1 0.00 0.01 0.01 78 1020.5
20260902011536 64 246 1.7 6.1 0.00 0.01 0.01 78 1020.6
20260902011033 64 182 2.6 6.1 0.00 0.01 0.01 78 1020.6
20260902010531 64 243 2.6 9.6 0.00 0.01 0.01 77 1020.5
20260902010030 65 198 2.6 9.6 0.00 0.01 0.01 78 1020.4
20260902005524 65 228 3.5 7.8 0.00 0.01 0.01 77 1020.3
20260902005023 65 266 2.6 7.8 0.00 0.01 0.01 77 1020.2
20260902004523 65 204 2.6 7.0 0.00 0.01 0.01 76 1020.2
20260902004023 65 231 3.5 9.6 0.00 0.01 0.01 76 1020.2
20260902003523 66 274 2.6 9.6 0.00 0.01 0.01 75 1020.1
20260902003023 66 222 1.7 6.1 0.00 0.01 0.01 75 1020.1
20260902002518 67 219 3.5 7.8 0.00 0.01 0.01 75 1019.9
20260902002017 67 241 3.5 7.8 0.00 0.01 0.01 74 1020.0
20260902001517 67 273 2.6 7.0 0.00 0.01 0.01 73 1019.9
20260902001017 67 242 1.7 4.3 0.00 0.01 0.01 73 1019.9
20260902000517 67 182 2.6 6.1 0.00 0.01 0.01 72 1019.9
20260902000018 67 247 2.6 6.1 0.00 0.01 0.01 72 1020.0
20260901235514 67 268 2.6 7.0 0.00 0.01 0.01 72 1019.9
20260901235012 67 241 1.7 7.0 0.00 0.01 0.01 71 1019.9
20260901234511 67 204 2.6 7.8 0.00 0.01 0.01 71 1019.9
20260901234011 67 240 3.5 7.8 0.00 0.01 0.01 71 1019.9
20260901233510 67 248 2.6 7.8 0.00 0.01 0.01 71 1019.9
20260901232508 68 226 1.7 6.1 0.00 0.01 0.01 72 1019.9
20260901232009 68 232 2.6 6.1 0.00 0.01 0.01 72 1020.0
20260901231510 68 213 2.6 6.1 0.00 0.01 0.01 72 1020.0
20260901231006 68 273 1.7 6.1 0.00 0.01 0.01 72 1020.0
20260901230505 68 254 1.7 4.3 0.00 0.01 0.01 72 1020.1
20260901230005 68 211 1.7 5.2 0.00 0.01 0.01 72 1020.0
20260901225500 68 166 1.7 5.2 0.00 0.01 0.01 71 1020.0
20260901224959 68 205 1.7 5.2 0.00 0.01 0.01 71 1020.0
20260901224458 68 259 1.7 5.2 0.00 0.01 0.01 72 1020.0
20260901223958 68 242 1.7 4.3 0.00 0.01 0.01 72 1020.0
20260901223459 68 191 2.6 6.1 0.00 0.01 0.01 72 1020.0
20260901223000 68 217 2.6 6.1 0.00 0.01 0.01 72 1020.1
20260901222453 68 163 2.6 6.1 0.00 0.01 0.01 71 1020.1
20260901221953 68 249 2.6 6.1 0.00 0.01 0.01 71 1020.1
20260901221453 68 188 2.6 5.2 0.00 0.01 0.01 71 1020.1
20260901220952 68 207 1.7 5.2 0.00 0.01 0.01 71 1020.1
20260901220453 68 215 2.6 8.7 0.00 0.01 0.01 71 1020.0
20260901215954 68 167 2.6 8.7 0.00 0.01 0.01 71 1020.0
20260901215448 68 209 1.7 5.2 0.00 0.01 0.01 72 1020.0
20260901214946 67 212 1.7 7.0 0.00 0.01 0.01 72 1020.0
20260901214446 67 148 1.7 7.0 0.00 0.01 0.01 72 1019.9
20260901213948 67 215 2.6 7.0 0.00 0.01 0.01 72 1019.9
20260901213447 67 246 2.6 7.0 0.00 0.01 0.01 73 1019.9
20260901212948 67 196 1.7 7.0 0.00 0.01 0.01 73 1019.8
20260901212445 67 163 1.7 7.8 0.00 0.01 0.01 72 1019.9
20260901211943 67 216 2.6 7.8 0.00 0.01 0.01 73 1019.9
20260901211440 67 155 3.5 8.7 0.00 0.01 0.01 72 1020.0
20260901210940 68 152 2.6 8.7 0.00 0.01 0.01 72 1020.0
20260901210438 68 182 1.7 7.0 0.00 0.01 0.01 72 1020.0
20260901205940 68 166 2.6 6.1 0.00 0.01 0.01 72 1019.8
20260901205437 68 175 1.7 6.1 0.00 0.01 0.01 71 1019.9
20260901204937 68 182 1.7 7.8 0.00 0.01 0.01 71 1019.9
20260901204438 69 177 2.6 7.8 0.00 0.01 0.01 71 1019.9
20260901203934 69 232 2.6 7.0 0.00 0.01 0.01 70 1019.9
20260901203436 69 155 2.6 6.1 0.00 0.01 0.01 70 1019.9
20260901202934 69 161 2.6 9.6 0.00 0.01 0.01 69 1019.9
20260901202436 69 193 3.5 9.6 0.00 0.01 0.01 70 1020.0
20260901201932 69 263 2.6 7.8 0.00 0.01 0.01 71 1020.1
20260901201430 69 162 2.6 7.8 0.00 0.01 0.01 72 1020.0
20260901200932 68 212 2.6 7.0 0.00 0.01 0.01 73 1020.0
20260901200431 67 189 2.6 7.0 0.00 0.01 0.01 75 1020.0
20260901195930 67 194 1.7 5.2 0.00 0.01 0.01 77 1020.0
20260901195431 67 172 0.9 5.2 0.00 0.01 0.01 78 1020.1
20260901194932 67 168 0.9 5.2 0.00 0.01 0.01 77 1020.1
20260901194429 67 162 0.9 5.2 0.00 0.01 0.01 78 1020.2
20260901193928 67 175 0.9 5.2 0.00 0.01 0.01 78 1020.3
20260901193429 67 173 1.7 7.0 0.00 0.01 0.01 78 1020.3
20260901192929 67 197 2.6 7.0 0.00 0.01 0.01 78 1020.3
20260901192430 67 167 1.7 6.1 0.00 0.01 0.01 78 1020.4
20260901191928 67 133 1.7 7.0 0.01 0.01 0.01 78 1020.5
20260901191429 67 123 1.7 7.0 0.01 0.01 0.01 79 1020.5
20260901190929 67 147 1.7 9.6 0.01 0.01 0.01 80 1020.5
20260901190428 67 138 1.7 9.6 0.01 0.01 0.01 81 1020.7
20260901185930 66 180 2.6 7.0 0.01 0.01 0.01 83 1020.6
20260901185423 66 206 2.6 7.0 0.01 0.01 0.01 83 1020.7
20260901184919 65 185 2.6 6.1 0.01 0.01 0.01 83 1020.8
20260901184418 65 129 1.7 6.1 0.01 0.01 0.01 85 1020.8
20260901183918 64 134 1.7 7.0 0.01 0.01 0.01 85 1020.7
20260901183418 64 161 2.6 7.0 0.01 0.01 0.01 84 1020.8
20260901182919 64 161 2.6 6.1 0.01 0.01 0.01 84 1020.8
20260901182419 64 209 2.6 7.0 0.01 0.01 0.01 84 1020.9
20260901181915 64 158 2.6 7.0 0.00 0.00 0.00 84 1020.9
20260901181414 64 192 2.6 7.0 0.00 0.00 0.00 83 1020.9
20260901180914 64 180 2.6 7.0 0.00 0.00 0.00 82 1020.8
20260901180415 64 189 1.7 7.0 0.00 0.00 0.00 82 1020.9
20260901175915 65 142 1.7 6.1 0.00 0.00 0.00 82 1020.9
20260901175415 65 199 2.6 7.8 0.00 0.00 0.00 82 1020.9
20260901174911 64 161 1.7 7.8 0.00 0.00 0.00 83 1021.0
20260901174412 64 171 1.7 6.1 0.00 0.00 0.00 84 1020.9
20260901173910 64 159 2.6 5.2 0.00 0.00 0.00 85 1020.8
20260901173411 63 166 2.6 9.6 0.00 0.00 0.00 84 1020.8
20260901172910 63 155 2.6 9.6 0.00 0.00 0.00 84 1020.8
20260901172412 63 230 2.6 7.0 0.00 0.00 0.00 85 1020.8
20260901171910 63 144 2.6 7.0 0.00 0.00 0.00 85 1020.7
20260901171410 63 206 1.7 6.1 0.00 0.00 0.00 85 1020.7
20260901170911 63 162 1.7 7.0 0.00 0.00 0.00 86 1020.6
20260901170407 63 222 1.7 7.0 0.00 0.00 0.00 86 1020.6
20260901165904 62 167 2.6 7.0 0.00 0.00 0.00 87 1020.8
20260901165403 62 178 1.7 7.0 0.00 0.00 0.00 87 1020.7
20260901164902 61 153 0.9 3.5 0.00 0.00 0.00 88 1020.7
20260901164402 61 157 0.9 2.6 0.00 0.00 0.00 89 1020.7
20260901163902 60 157 0.9 4.3 0.00 0.00 0.00 89 1020.8
20260901163358 60 159 0.9 4.3 0.00 0.00 0.00 89 1020.9
20260901162858 60 205 0.9 3.5 0.00 0.00 0.00 89 1020.9
20260901162356 60 146 0.9 3.5 0.00 0.00 0.00 89 1021.0
20260901161856 60 166 0.9 3.5 0.00 0.00 0.00 89 1021.0
20260901161356 60 168 0.9 3.5 0.00 0.00 0.00 89 1021.2
20260901160857 60 163 1.7 4.3 0.00 0.00 0.00 89 1021.2
20260901160351 60 175 1.7 5.2 0.00 0.00 0.00 89 1021.1
20260901155850 60 170 1.7 5.2 0.00 0.00 0.00 89 1021.1
20260901155350 60 200 0.9 4.3 0.00 0.00 0.00 89 1021.0
20260901154850 60 169 0.9 3.5 0.00 0.00 0.00 88 1021.1
20260901154350 60 155 0.9 5.2 0.00 0.00 0.00 88 1021.1
20260901153850 60 154 1.7 5.2 0.00 0.00 0.00 88 1021.1
20260901153344 60 165 0.9 4.3 0.00 0.00 0.00 88 1021.0
20260901152844 60 161 1.7 4.3 0.00 0.00 0.00 87 1021.1
20260901152344 60 132 1.7 7.0 0.00 0.00 0.00 87 1020.9
20260901151844 60 142 2.6 9.6 0.00 0.00 0.00 87 1021.0
20260901151344 60 171 2.6 9.6 0.00 0.00 0.00 86 1020.9
20260901150844 60 158 2.6 7.0 0.00 0.00 0.00 86 1020.9
20260901150340 60 153 1.7 7.0 0.00 0.00 0.00 86 1020.7
20260901145839 60 158 1.7 6.1 0.00 0.00 0.00 86 1020.6
20260901145341 60 174 1.7 5.2 0.00 0.00 0.00 86 1020.7
20260901144840 60 142 1.7 5.2 0.00 0.00 0.00 85 1020.6
20260901144338 60 157 1.7 4.3 0.00 0.00 0.00 85 1020.6
20260901143837 60 136 1.7 4.3 0.00 0.00 0.00 85 1020.5
20260901143336 60 154 1.7 5.2 0.00 0.00 0.00 86 1020.5
20260901142834 60 188 1.7 5.2 0.00 0.00 0.00 85 1020.5
20260901142335 60 192 1.7 5.2 0.00 0.00 0.00 85 1020.6
20260901141834 60 138 1.7 5.2 0.00 0.00 0.00 85 1020.5
20260901141332 60 155 1.7 5.2 0.00 0.00 0.00 85 1020.5
20260901140833 60 172 0.9 5.2 0.00 0.00 0.00 85 1020.4
20260901140328 60 117 0.9 3.5 0.00 0.00 0.00 85 1020.3
20260901135826 60 117 1.7 4.3 0.00 0.00 0.00 85 1020.2
20260901135326 60 119 0.9 4.3 0.00 0.00 0.00 85 1020.3
20260901134826 60 157 0.9 4.3 0.00 0.00 0.00 85 1020.3
20260901134325 60 167 1.7 4.3 0.00 0.00 0.00 85 1020.1
20260901133827 60 144 0.9 4.3 0.00 0.00 0.00 86 1020.1
20260901133321 60 153 0.9 3.5 0.00 0.00 0.00 86 1020.2
20260901132820 60 161 0.9 3.5 0.00 0.00 0.00 86 1020.1
20260901132319 60 162 0.9 3.5 0.00 0.00 0.00 86 1020.3
20260901131820 60 163 0.9 3.5 0.00 0.00 0.00 86 1020.2
20260901131320 60 162 0.9 3.5 0.00 0.00 0.00 86 1020.2
20260901130820 60 161 0.9 4.3 0.00 0.00 0.00 86 1020.2
20260901130317 60 152 0.9 4.3 0.00 0.00 0.00 86 1020.2
20260901125816 60 157 0.9 3.5 0.00 0.00 0.00 86 1020.2
20260901125314 60 159 0.9 3.5 0.00 0.00 0.00 86 1020.2
20260901124813 59 159 0.9 4.3 0.00 0.00 0.00 86 1020.2
20260901124314 59 160 0.9 4.3 0.00 0.00 0.00 86 1020.1
20260901123814 59 171 0.9 3.5 0.00 0.00 0.00 86 1020.1